Location: Centerville
(32.8776°N, 96.6203°W)
Time: 13:18:04
(UTC+00:00)

Cosmos 921 Rocket - Pass Details

Date: 17 June 2021
Orbit: 572 x 632 km, 75.8° (Epoch: 30 July)

Event Time Altitude Azimuth Distance (km) Brightness Sun altitude
Exits shadow 09:01:06 24° 303° (WNW) 1,204 4.4 -22.9°
Drops below altitude 10° 09:04:03 10° 347° (NNW) 1,890 6.0 -22.5°
Sets 09:06:33 0° 0° (N) 2,787 7.2 -22.1°
